Tracking 19145 objects as of 25-Apr-2018
HD Live streaming from Space Station
objects crossing your sky now

FENGYUN 1C DEB

Track FENGYUN 1C DEB now!
10-day predictions


NORAD ID: 37705
Int'l Code: 1999-025ELW
Perigee: 569.9 km
Apogee: 714.7 km
Inclination: 99.5 °
Period: 97.4 minutes
Semi major axis: 7013 km
RCS: 0.0003 m2 (small)
Launch date: May 10, 1999
Source: People's Republic of China (PRC)
Launch site: Taiyaun Space Center, China (TSC)

Note: This is SATELLITE DEBRIS
aabbcc
Your satellite tracking list
Your tracking list is empty




NASA's NSSDC Master Catalog

Two Line Element Set (TLE):
1 37705U 99025ELW 18114.99529553  .00001261  00000-0  16948-3 0  9990
2 37705  99.4986  39.2380 0103218 230.5810 128.6224 14.78150594503106
Source of the keplerian elements: AFSPC